Tracking 32523 objects as of 13-Dec-2025
HD Live streaming from Space Station
objects crossing your sky now

SITRO-AIS-9

Track SITRO-AIS-9 now!
10-day predictions
SITRO-AIS-9 is classified as:


NORAD ID: 57201
Int'l Code: 2023-091AM
Perigee: 475.4 km
Apogee: 487.1 km
Inclination: 97.5 °
Period: 94.1 minutes
Semi major axis: 6852 km
RCS: Unknown
Launch date: June 27, 2023
Source: (TBD)
Launch site: VOSTOCHNY COSMODROME (VOSTO)

Uplink (MHz):
Downlink (MHz): 401.260
Beacon (MHz):
Mode: 2k4 GMSK_USP
Call sign: SC2211
Status: Active

Your satellite tracking list
Your tracking list is empty




NASA's NSSDC Master Catalog

Two Line Element Set (TLE):
1 57201U 23091AM  25346.25114106  .00026287  00000-0  88885-3 0  9995
2 57201  97.5355  47.9863 0008513  28.1239 332.0460 15.30577489136085
Source of the keplerian elements: AFSPC